Year,Month,Day,Hour,Minute,Value (Times are PST for temperature in C)
2013,05,04,00,00,10.90
2013,05,04,00,01,10.90
2013,05,04,00,02,10.80
2013,05,04,00,03,10.80
2013,05,04,00,04,10.80
2013,05,04,00,05,10.80
2013,05,04,00,06,10.70
2013,05,04,00,07,10.70
2013,05,04,00,08,10.70
2013,05,04,00,09,10.70
2013,05,04,00,10,10.70
2013,05,04,00,11,10.70
2013,05,04,00,12,10.70
2013,05,04,00,13,10.70
2013,05,04,00,14,10.70
2013,05,04,00,15,10.70
2013,05,04,00,16,10.70
2013,05,04,00,17,10.70
2013,05,04,00,18,10.70
2013,05,04,00,19,10.60
2013,05,04,00,20,10.60
2013,05,04,00,21,10.60
2013,05,04,00,22,10.60
2013,05,04,00,23,10.60
2013,05,04,00,24,10.60
2013,05,04,00,25,10.60
2013,05,04,00,26,10.60
2013,05,04,00,27,10.60
2013,05,04,00,28,10.60
2013,05,04,00,29,10.50
2013,05,04,00,30,10.40
2013,05,04,00,31,10.40
2013,05,04,00,32,10.40
2013,05,04,00,33,10.40
2013,05,04,00,34,10.40
2013,05,04,00,35,10.40
2013,05,04,00,36,10.30
2013,05,04,00,37,10.30
2013,05,04,00,38,10.20
2013,05,04,00,39,10.20
2013,05,04,00,40,10.20
2013,05,04,00,41,10.20
2013,05,04,00,42,10.10
2013,05,04,00,43,10.10
2013,05,04,00,44,10.10
2013,05,04,00,45,10.10
2013,05,04,00,46,10.10
2013,05,04,00,47,10.10
2013,05,04,00,48,10.10
2013,05,04,00,49,10.10
2013,05,04,00,50,10.10
2013,05,04,00,51,10.10
2013,05,04,00,52,10.10
2013,05,04,00,53,10.20
2013,05,04,00,54,10.20
2013,05,04,00,55,10.30
2013,05,04,00,56,10.30
2013,05,04,00,57,10.30
2013,05,04,00,58,10.30
2013,05,04,00,59,10.30
2013,05,04,01,00,10.20
2013,05,04,01,01,10.20
2013,05,04,01,02,10.10
2013,05,04,01,03,10.10
2013,05,04,01,04,10.10
2013,05,04,01,05,10.10
2013,05,04,01,06,10.00
2013,05,04,01,07,9.90
2013,05,04,01,08,9.90
2013,05,04,01,09,9.90
2013,05,04,01,10,9.90
2013,05,04,01,11,9.90
2013,05,04,01,12,9.90
2013,05,04,01,13,9.90
2013,05,04,01,14,9.80
2013,05,04,01,15,9.80
2013,05,04,01,16,9.80
2013,05,04,01,17,9.80
2013,05,04,01,18,9.80
2013,05,04,01,19,9.80
2013,05,04,01,20,9.80
2013,05,04,01,21,9.70
2013,05,04,01,22,9.70
2013,05,04,01,23,9.70
2013,05,04,01,24,9.70
2013,05,04,01,25,9.70
2013,05,04,01,26,9.70
2013,05,04,01,27,9.70
2013,05,04,01,28,9.70
2013,05,04,01,29,9.60
2013,05,04,01,30,9.60
2013,05,04,01,31,9.60
2013,05,04,01,32,9.60
2013,05,04,01,33,9.60
2013,05,04,01,34,9.60
2013,05,04,01,35,9.50
2013,05,04,01,36,9.50
2013,05,04,01,37,9.50
2013,05,04,01,38,9.50
2013,05,04,01,39,9.50
2013,05,04,01,40,9.50
2013,05,04,01,41,9.40
2013,05,04,01,42,9.40
2013,05,04,01,43,9.40
2013,05,04,01,44,9.40
2013,05,04,01,45,9.40
2013,05,04,01,46,9.30
2013,05,04,01,47,9.30
2013,05,04,01,48,9.30
2013,05,04,01,49,9.30
2013,05,04,01,50,9.20
2013,05,04,01,51,9.20
2013,05,04,01,52,9.20
2013,05,04,01,53,9.20
2013,05,04,01,54,9.20
2013,05,04,01,55,9.20
2013,05,04,01,56,9.20
2013,05,04,01,57,9.20
2013,05,04,01,58,9.20
2013,05,04,01,59,9.20
2013,05,04,02,00,9.20
2013,05,04,02,01,9.20
2013,05,04,02,02,9.20
2013,05,04,02,03,9.20
2013,05,04,02,04,9.20
2013,05,04,02,05,9.20
2013,05,04,02,06,9.20
2013,05,04,02,07,9.20
2013,05,04,02,08,9.20
2013,05,04,02,09,9.20
2013,05,04,02,10,9.20
2013,05,04,02,11,9.20
2013,05,04,02,12,9.20
2013,05,04,02,13,9.30
2013,05,04,02,14,9.30
2013,05,04,02,15,9.30
2013,05,04,02,16,9.30
2013,05,04,02,17,9.30
2013,05,04,02,18,9.20
2013,05,04,02,19,9.20
2013,05,04,02,20,9.20
2013,05,04,02,21,9.20
2013,05,04,02,22,9.20
2013,05,04,02,23,9.20
2013,05,04,02,24,9.20
2013,05,04,02,25,9.20
2013,05,04,02,26,9.10
2013,05,04,02,27,9.10
2013,05,04,02,28,9.10
2013,05,04,02,29,9.10
2013,05,04,02,30,9.10
2013,05,04,02,31,9.00
2013,05,04,02,32,9.00
2013,05,04,02,33,9.00
2013,05,04,02,34,9.00
2013,05,04,02,35,8.90
2013,05,04,02,36,8.90
2013,05,04,02,37,8.90
2013,05,04,02,38,8.80
2013,05,04,02,39,8.80
2013,05,04,02,40,8.80
2013,05,04,02,41,8.70
2013,05,04,02,42,8.70
2013,05,04,02,43,8.70
2013,05,04,02,44,8.70
2013,05,04,02,45,8.70
2013,05,04,02,46,8.70
2013,05,04,02,47,8.70
2013,05,04,02,48,8.60
2013,05,04,02,49,8.60
2013,05,04,02,50,8.50
2013,05,04,02,51,8.50
2013,05,04,02,52,8.50
2013,05,04,02,53,8.40
2013,05,04,02,54,8.40
2013,05,04,02,55,8.40
2013,05,04,02,56,8.30
2013,05,04,02,57,8.30
2013,05,04,02,58,8.30
2013,05,04,02,59,8.30
2013,05,04,03,00,8.30
2013,05,04,03,01,8.20
2013,05,04,03,02,8.20
2013,05,04,03,03,8.20
2013,05,04,03,04,8.20
2013,05,04,03,05,8.20
2013,05,04,03,06,8.20
2013,05,04,03,07,8.30
2013,05,04,03,08,8.30
2013,05,04,03,09,8.30
2013,05,04,03,10,8.30
2013,05,04,03,11,8.30
2013,05,04,03,12,8.30
2013,05,04,03,13,8.30
2013,05,04,03,14,8.30
2013,05,04,03,15,8.20
2013,05,04,03,16,8.20
2013,05,04,03,17,8.20
2013,05,04,03,18,8.20
2013,05,04,03,19,8.20
2013,05,04,03,20,8.20
2013,05,04,03,21,8.20
2013,05,04,03,22,8.20
2013,05,04,03,23,8.20
2013,05,04,03,24,8.20
2013,05,04,03,25,8.20
2013,05,04,03,26,8.20
2013,05,04,03,27,8.20
2013,05,04,03,28,8.20
2013,05,04,03,29,8.20
2013,05,04,03,30,8.10
2013,05,04,03,31,8.10
2013,05,04,03,32,8.10
2013,05,04,03,33,8.10
2013,05,04,03,34,8.10
2013,05,04,03,35,8.10
2013,05,04,03,36,8.10
2013,05,04,03,37,8.00
2013,05,04,03,38,8.00
2013,05,04,03,39,8.00
2013,05,04,03,40,8.00
2013,05,04,03,41,8.00
2013,05,04,03,42,8.10
2013,05,04,03,43,8.10
2013,05,04,03,44,8.00
2013,05,04,03,45,8.00
2013,05,04,03,46,8.00
2013,05,04,03,47,8.00
2013,05,04,03,48,8.00
2013,05,04,03,49,7.90
2013,05,04,03,50,7.90
2013,05,04,03,51,7.90
2013,05,04,03,52,7.90
2013,05,04,03,53,7.80
2013,05,04,03,54,7.80
2013,05,04,03,55,7.80
2013,05,04,03,56,7.80
2013,05,04,03,57,7.80
2013,05,04,03,58,7.80
2013,05,04,03,59,7.70
2013,05,04,04,00,7.70
2013,05,04,04,01,7.70
2013,05,04,04,02,7.70
2013,05,04,04,03,7.70
2013,05,04,04,04,7.70
2013,05,04,04,05,7.70
2013,05,04,04,06,7.70
2013,05,04,04,07,7.60
2013,05,04,04,08,7.60
2013,05,04,04,09,7.60
2013,05,04,04,10,7.60
2013,05,04,04,11,7.60
2013,05,04,04,12,7.60
2013,05,04,04,13,7.60
2013,05,04,04,14,7.60
2013,05,04,04,15,7.60
2013,05,04,04,16,7.60
2013,05,04,04,17,7.60
2013,05,04,04,18,7.60
2013,05,04,04,19,7.60
2013,05,04,04,20,7.60
2013,05,04,04,21,7.60
2013,05,04,04,22,7.60
2013,05,04,04,23,7.60
2013,05,04,04,24,7.60
2013,05,04,04,25,7.60
2013,05,04,04,26,7.50
2013,05,04,04,27,7.50
2013,05,04,04,28,7.50
2013,05,04,04,29,7.50
2013,05,04,04,30,7.50
2013,05,04,04,31,7.40
2013,05,04,04,32,7.40
2013,05,04,04,33,7.40
2013,05,04,04,34,7.40
2013,05,04,04,35,7.30
2013,05,04,04,36,7.30
2013,05,04,04,37,7.30
2013,05,04,04,38,7.30
2013,05,04,04,39,7.30
2013,05,04,04,40,7.30
2013,05,04,04,41,7.30
2013,05,04,04,42,7.30
2013,05,04,04,43,7.30
2013,05,04,04,44,7.30
2013,05,04,04,45,7.40
2013,05,04,04,46,7.40
2013,05,04,04,47,7.40
2013,05,04,04,48,7.40
2013,05,04,04,49,7.40
2013,05,04,04,50,7.40
2013,05,04,04,51,7.30
2013,05,04,04,52,7.30
2013,05,04,04,53,7.30
2013,05,04,04,54,7.30
2013,05,04,04,55,7.30
2013,05,04,04,56,7.30
2013,05,04,04,57,7.30
2013,05,04,04,58,7.30
2013,05,04,04,59,7.20
2013,05,04,05,00,7.20
2013,05,04,05,01,7.20
2013,05,04,05,02,7.20
2013,05,04,05,03,7.20
2013,05,04,05,04,7.20
2013,05,04,05,05,7.20
2013,05,04,05,06,7.20
2013,05,04,05,07,7.30
2013,05,04,05,08,7.30
2013,05,04,05,09,7.30
2013,05,04,05,10,7.30
2013,05,04,05,11,7.20
2013,05,04,05,12,7.20
2013,05,04,05,13,7.20
2013,05,04,05,14,7.20
2013,05,04,05,15,7.10
2013,05,04,05,16,7.10
2013,05,04,05,17,7.10
2013,05,04,05,18,7.10
2013,05,04,05,19,7.00
2013,05,04,05,20,7.00
2013,05,04,05,21,7.00
2013,05,04,05,22,7.00
2013,05,04,05,23,7.00
2013,05,04,05,24,6.90
2013,05,04,05,25,6.90
2013,05,04,05,26,6.90
2013,05,04,05,27,6.90
2013,05,04,05,28,6.90
2013,05,04,05,29,6.90
2013,05,04,05,30,6.90
2013,05,04,05,31,6.90
2013,05,04,05,32,6.90
2013,05,04,05,33,6.90
2013,05,04,05,34,6.90
2013,05,04,05,35,6.90
2013,05,04,05,36,6.90
2013,05,04,05,37,6.90
2013,05,04,05,38,6.90
2013,05,04,05,39,6.90
2013,05,04,05,40,6.90
2013,05,04,05,41,6.90
2013,05,04,05,42,7.00
2013,05,04,05,43,7.00
2013,05,04,05,44,7.00
2013,05,04,05,45,7.00
2013,05,04,05,46,7.00
2013,05,04,05,47,7.00
2013,05,04,05,48,7.00
2013,05,04,05,49,7.00
2013,05,04,05,50,7.00
2013,05,04,05,51,7.00
2013,05,04,05,52,7.10
2013,05,04,05,53,7.10
2013,05,04,05,54,7.10
2013,05,04,05,55,7.10
2013,05,04,05,56,7.10
2013,05,04,05,57,7.10
2013,05,04,05,58,7.00
2013,05,04,05,59,7.00
2013,05,04,06,00,7.00
2013,05,04,06,01,7.00
2013,05,04,06,02,7.00
2013,05,04,06,03,6.90
2013,05,04,06,04,6.90
2013,05,04,06,05,6.90
2013,05,04,06,06,6.90
2013,05,04,06,07,6.90
2013,05,04,06,08,7.00
2013,05,04,06,09,7.00
2013,05,04,06,10,7.00
2013,05,04,06,11,7.00
2013,05,04,06,12,7.00
2013,05,04,06,13,7.00
2013,05,04,06,14,7.10
2013,05,04,06,15,7.10
2013,05,04,06,16,7.20
2013,05,04,06,17,7.20
2013,05,04,06,18,7.20
2013,05,04,06,19,7.30
2013,05,04,06,20,7.30
2013,05,04,06,21,7.40
2013,05,04,06,22,7.40
2013,05,04,06,23,7.50
2013,05,04,06,24,7.50
2013,05,04,06,25,7.50
2013,05,04,06,26,7.50
2013,05,04,06,27,7.50
2013,05,04,06,28,7.50
2013,05,04,06,29,7.50
2013,05,04,06,30,7.60
2013,05,04,06,31,7.60
2013,05,04,06,32,7.60
2013,05,04,06,33,7.60
2013,05,04,06,34,7.60
2013,05,04,06,35,7.70
2013,05,04,06,36,7.70
2013,05,04,06,37,7.80
2013,05,04,06,38,7.80
2013,05,04,06,39,7.80
2013,05,04,06,40,7.80
2013,05,04,06,41,7.80
2013,05,04,06,42,7.80
2013,05,04,06,43,7.90
2013,05,04,06,44,7.90
2013,05,04,06,45,8.00
2013,05,04,06,46,8.00
2013,05,04,06,47,8.00
2013,05,04,06,48,8.10
2013,05,04,06,49,8.10
2013,05,04,06,50,8.10
2013,05,04,06,51,8.20
2013,05,04,06,52,8.20
2013,05,04,06,53,8.20
2013,05,04,06,54,8.20
2013,05,04,06,55,8.30
2013,05,04,06,56,8.30
2013,05,04,06,57,8.40
2013,05,04,06,58,8.50
2013,05,04,06,59,8.50
2013,05,04,07,00,8.60
2013,05,04,07,01,8.70
2013,05,04,07,02,8.70
2013,05,04,07,03,8.80
2013,05,04,07,04,8.90
2013,05,04,07,05,9.00
2013,05,04,07,06,9.20
2013,05,04,07,07,9.20
2013,05,04,07,08,9.30
2013,05,04,07,09,9.40
2013,05,04,07,10,9.50
2013,05,04,07,11,9.60
2013,05,04,07,12,9.70
2013,05,04,07,13,9.70
2013,05,04,07,14,9.70
2013,05,04,07,15,9.80
2013,05,04,07,16,9.90
2013,05,04,07,17,9.90
2013,05,04,07,18,10.00
2013,05,04,07,19,10.10
2013,05,04,07,20,10.10
2013,05,04,07,21,10.20
2013,05,04,07,22,10.30
2013,05,04,07,23,10.40
2013,05,04,07,24,10.40
2013,05,04,07,25,10.50
2013,05,04,07,26,10.60
2013,05,04,07,27,10.60
2013,05,04,07,28,10.60
2013,05,04,07,29,10.60
2013,05,04,07,30,10.70
2013,05,04,07,31,10.80
2013,05,04,07,32,10.90
2013,05,04,07,33,10.90
2013,05,04,07,34,11.00
2013,05,04,07,35,11.10
2013,05,04,07,36,11.10
2013,05,04,07,37,11.20
2013,05,04,07,38,11.20
2013,05,04,07,39,11.20
2013,05,04,07,40,11.30
2013,05,04,07,41,11.40
2013,05,04,07,42,11.40
2013,05,04,07,43,11.50
2013,05,04,07,44,11.60
2013,05,04,07,45,11.60
2013,05,04,07,46,11.70
2013,05,04,07,47,11.80
2013,05,04,07,48,11.90
2013,05,04,07,49,11.90
2013,05,04,07,50,12.00
2013,05,04,07,51,12.10
2013,05,04,07,52,12.10
2013,05,04,07,53,12.20
2013,05,04,07,54,12.30
2013,05,04,07,55,12.30
2013,05,04,07,56,12.30
2013,05,04,07,57,12.40
2013,05,04,07,58,12.40
2013,05,04,07,59,12.50
2013,05,04,08,00,12.50
2013,05,04,08,01,12.60
2013,05,04,08,02,12.60
2013,05,04,08,03,12.60
2013,05,04,08,04,12.70
2013,05,04,08,05,12.70
2013,05,04,08,06,12.80
2013,05,04,08,07,12.80
2013,05,04,08,08,12.80
2013,05,04,08,09,12.90
2013,05,04,08,10,13.00
2013,05,04,08,11,13.00
2013,05,04,08,12,13.10
2013,05,04,08,13,13.20
2013,05,04,08,14,13.20
2013,05,04,08,15,13.30
2013,05,04,08,16,13.40
2013,05,04,08,17,13.50
2013,05,04,08,18,13.60
2013,05,04,08,19,13.70
2013,05,04,08,20,13.80
2013,05,04,08,21,13.90
2013,05,04,08,22,14.00
2013,05,04,08,23,14.00
2013,05,04,08,24,14.20
2013,05,04,08,25,14.20
2013,05,04,08,26,14.30
2013,05,04,08,27,14.30
2013,05,04,08,28,14.40
2013,05,04,08,29,14.40
2013,05,04,08,30,14.40
2013,05,04,08,31,14.50
2013,05,04,08,32,14.50
2013,05,04,08,33,14.60
2013,05,04,08,34,14.70
2013,05,04,08,35,14.80
2013,05,04,08,36,14.90
2013,05,04,08,37,15.00
2013,05,04,08,38,15.00
2013,05,04,08,39,15.00
2013,05,04,08,40,14.90
2013,05,04,08,41,14.90
2013,05,04,08,42,15.00
2013,05,04,08,43,15.10
2013,05,04,08,44,15.10
2013,05,04,08,45,15.20
2013,05,04,08,46,15.30
2013,05,04,08,47,15.30
2013,05,04,08,48,15.40
2013,05,04,08,49,15.50
2013,05,04,08,50,15.60
2013,05,04,08,51,15.60
2013,05,04,08,52,15.70
2013,05,04,08,53,15.80
2013,05,04,08,54,15.90
2013,05,04,08,55,16.00
2013,05,04,08,56,16.10
2013,05,04,08,57,16.10
2013,05,04,08,58,16.20
2013,05,04,08,59,16.30
2013,05,04,09,00,16.30
2013,05,04,09,01,16.20
2013,05,04,09,02,16.20
2013,05,04,09,03,16.20
2013,05,04,09,04,16.20
2013,05,04,09,05,16.30
2013,05,04,09,06,16.30
2013,05,04,09,07,16.30
2013,05,04,09,08,16.40
2013,05,04,09,09,16.40
2013,05,04,09,10,16.60
2013,05,04,09,11,16.70
2013,05,04,09,12,16.70
2013,05,04,09,13,16.70
2013,05,04,09,14,16.70
2013,05,04,09,15,16.60
2013,05,04,09,16,16.50
2013,05,04,09,17,16.40
2013,05,04,09,18,16.50
2013,05,04,09,19,16.60
2013,05,04,09,20,16.70
2013,05,04,09,21,16.70
2013,05,04,09,22,16.70
2013,05,04,09,23,16.80
2013,05,04,09,24,16.70
2013,05,04,09,25,16.70
2013,05,04,09,26,16.80
2013,05,04,09,27,16.90
2013,05,04,09,28,17.00
2013,05,04,09,29,17.10
2013,05,04,09,30,17.30
2013,05,04,09,31,17.30
2013,05,04,09,32,17.30
2013,05,04,09,33,17.30
2013,05,04,09,34,17.40
2013,05,04,09,35,17.50
2013,05,04,09,36,17.60
2013,05,04,09,37,17.70
2013,05,04,09,38,17.80
2013,05,04,09,39,17.90
2013,05,04,09,40,18.00
2013,05,04,09,41,18.10
2013,05,04,09,42,18.20
2013,05,04,09,43,18.30
2013,05,04,09,44,18.40
2013,05,04,09,45,18.50
2013,05,04,09,46,18.50
2013,05,04,09,47,18.50
2013,05,04,09,48,18.50
2013,05,04,09,49,18.50
2013,05,04,09,50,18.50
2013,05,04,09,51,18.60
2013,05,04,09,52,18.60
2013,05,04,09,53,18.50
2013,05,04,09,54,18.40
2013,05,04,09,55,18.20
2013,05,04,09,56,18.10
2013,05,04,09,57,18.00
2013,05,04,09,58,17.90
2013,05,04,09,59,17.90
2013,05,04,10,00,17.80
2013,05,04,10,01,17.80
2013,05,04,10,02,17.90
2013,05,04,10,03,18.00
2013,05,04,10,04,18.30
2013,05,04,10,05,18.50
2013,05,04,10,06,18.70
2013,05,04,10,07,19.00
2013,05,04,10,08,19.20
2013,05,04,10,09,19.30
2013,05,04,10,10,19.40
2013,05,04,10,11,19.50
2013,05,04,10,12,19.60
2013,05,04,10,13,19.70
2013,05,04,10,14,19.80
2013,05,04,10,15,19.80
2013,05,04,10,16,19.90
2013,05,04,10,17,20.00
2013,05,04,10,18,20.10
2013,05,04,10,19,20.20
2013,05,04,10,20,20.20
2013,05,04,10,21,20.30
2013,05,04,10,22,20.40
2013,05,04,10,23,20.50
2013,05,04,10,24,20.50
2013,05,04,10,25,20.70
2013,05,04,10,26,20.70
2013,05,04,10,27,20.80
2013,05,04,10,28,20.90
2013,05,04,10,29,20.90
2013,05,04,10,30,20.90
2013,05,04,10,31,20.90
2013,05,04,10,32,20.90
2013,05,04,10,33,20.90
2013,05,04,10,34,20.90
2013,05,04,10,35,20.80
2013,05,04,10,36,20.80
2013,05,04,10,37,20.80
2013,05,04,10,38,20.80
2013,05,04,10,39,20.80
2013,05,04,10,40,20.80
2013,05,04,10,41,20.80
2013,05,04,10,42,20.80
2013,05,04,10,43,20.80
2013,05,04,10,44,20.70
2013,05,04,10,45,20.70
2013,05,04,10,46,20.70
2013,05,04,10,47,20.70
2013,05,04,10,48,20.60
2013,05,04,10,49,20.70
2013,05,04,10,50,20.80
2013,05,04,10,51,20.80
2013,05,04,10,52,20.90
2013,05,04,10,53,20.90
2013,05,04,10,54,20.90
2013,05,04,10,55,21.00
2013,05,04,10,56,21.00
2013,05,04,10,57,21.00
2013,05,04,10,58,21.00
2013,05,04,10,59,21.10
2013,05,04,11,00,21.10
2013,05,04,11,01,21.00
2013,05,04,11,02,21.10
2013,05,04,11,03,21.10
2013,05,04,11,04,21.30
2013,05,04,11,05,21.30
2013,05,04,11,06,21.40
2013,05,04,11,07,21.40
2013,05,04,11,08,21.30
2013,05,04,11,09,21.30
2013,05,04,11,10,21.50
2013,05,04,11,11,21.60
2013,05,04,11,12,21.60
2013,05,04,11,13,21.60
2013,05,04,11,14,21.60
2013,05,04,11,15,21.60
2013,05,04,11,16,21.60
2013,05,04,11,17,21.60
2013,05,04,11,18,21.60
2013,05,04,11,19,21.70
2013,05,04,11,20,21.70
2013,05,04,11,21,21.70
2013,05,04,11,22,21.70
2013,05,04,11,23,21.80
2013,05,04,11,24,21.80
2013,05,04,11,25,21.80
2013,05,04,11,26,21.90
2013,05,04,11,27,21.80
2013,05,04,11,28,21.60
2013,05,04,11,29,21.50
2013,05,04,11,30,21.40
2013,05,04,11,31,21.40
2013,05,04,11,32,21.50
2013,05,04,11,33,21.60
2013,05,04,11,34,21.60
2013,05,04,11,35,21.60
2013,05,04,11,36,21.60
2013,05,04,11,37,21.60
2013,05,04,11,38,21.60
2013,05,04,11,39,21.70
2013,05,04,11,40,21.70
2013,05,04,11,41,21.70
2013,05,04,11,42,21.70
2013,05,04,11,43,21.80
2013,05,04,11,44,21.70
2013,05,04,11,45,21.60
2013,05,04,11,46,21.60
2013,05,04,11,47,21.60
2013,05,04,11,48,21.60
2013,05,04,11,49,21.60
2013,05,04,11,50,21.60
2013,05,04,11,51,21.70
2013,05,04,11,52,21.70
2013,05,04,11,53,21.80
2013,05,04,11,54,21.90
2013,05,04,11,55,22.00
2013,05,04,11,56,22.00
2013,05,04,11,57,22.10
2013,05,04,11,58,22.10
2013,05,04,11,59,22.20
2013,05,04,12,00,22.20
2013,05,04,12,01,22.20
2013,05,04,12,02,22.20
2013,05,04,12,03,22.20
2013,05,04,12,04,22.20
2013,05,04,12,05,22.20
2013,05,04,12,06,22.30
2013,05,04,12,07,22.30
2013,05,04,12,08,22.30
2013,05,04,12,09,22.30
2013,05,04,12,10,22.20
2013,05,04,12,11,22.30
2013,05,04,12,12,22.30
2013,05,04,12,13,22.50
2013,05,04,12,14,22.50
2013,05,04,12,15,22.50
2013,05,04,12,16,22.50
2013,05,04,12,17,22.50
2013,05,04,12,18,22.40
2013,05,04,12,19,22.40
2013,05,04,12,20,22.50
2013,05,04,12,21,22.60
2013,05,04,12,22,22.50
2013,05,04,12,23,22.50
2013,05,04,12,24,22.40
2013,05,04,12,25,22.50
2013,05,04,12,26,22.50
2013,05,04,12,27,22.60
2013,05,04,12,28,22.70
2013,05,04,12,29,22.70
2013,05,04,12,30,22.70
2013,05,04,12,31,22.60
2013,05,04,12,32,22.40
2013,05,04,12,33,22.40
2013,05,04,12,34,22.40
2013,05,04,12,35,22.40
2013,05,04,12,36,22.40
2013,05,04,12,37,22.60
2013,05,04,12,38,22.70
2013,05,04,12,39,22.80
2013,05,04,12,40,22.80
2013,05,04,12,41,22.90
2013,05,04,12,42,22.80
2013,05,04,12,43,22.80
2013,05,04,12,44,22.80
2013,05,04,12,45,22.90
2013,05,04,12,46,23.00
2013,05,04,12,47,23.10
2013,05,04,12,48,23.20
2013,05,04,12,49,23.20
2013,05,04,12,50,23.10
2013,05,04,12,51,23.10
2013,05,04,12,52,22.90
2013,05,04,12,53,22.90
2013,05,04,12,54,23.00
2013,05,04,12,55,23.10
2013,05,04,12,56,23.20
2013,05,04,12,57,23.30
2013,05,04,12,58,23.30
2013,05,04,12,59,23.20
2013,05,04,13,00,23.00
2013,05,04,13,01,22.80
2013,05,04,13,02,22.80
2013,05,04,13,03,22.80
2013,05,04,13,04,22.90
2013,05,04,13,05,22.80
2013,05,04,13,06,22.90
2013,05,04,13,07,22.90
2013,05,04,13,08,22.80
2013,05,04,13,09,22.80
2013,05,04,13,10,22.90
2013,05,04,13,11,23.10
2013,05,04,13,12,23.10
2013,05,04,13,13,23.10
2013,05,04,13,14,23.00
2013,05,04,13,15,23.10
2013,05,04,13,16,23.10
2013,05,04,13,17,23.10
2013,05,04,13,18,23.10
2013,05,04,13,19,23.10
2013,05,04,13,20,23.00
2013,05,04,13,21,22.90
2013,05,04,13,22,22.90
2013,05,04,13,23,23.00
2013,05,04,13,24,23.10
2013,05,04,13,25,23.20
2013,05,04,13,26,23.30
2013,05,04,13,27,23.40
2013,05,04,13,28,23.40
2013,05,04,13,29,23.30
2013,05,04,13,30,23.30
2013,05,04,13,31,23.30
2013,05,04,13,32,23.50
2013,05,04,13,33,23.60
2013,05,04,13,34,23.70
2013,05,04,13,35,23.70
2013,05,04,13,36,23.70
2013,05,04,13,37,23.70
2013,05,04,13,38,23.60
2013,05,04,13,39,23.60
2013,05,04,13,40,23.70
2013,05,04,13,41,23.70
2013,05,04,13,42,23.70
2013,05,04,13,43,23.70
2013,05,04,13,44,23.70
2013,05,04,13,45,23.70
2013,05,04,13,46,23.70
2013,05,04,13,47,23.80
2013,05,04,13,48,24.00
2013,05,04,13,49,24.10
2013,05,04,13,50,24.10
2013,05,04,13,51,24.10
2013,05,04,13,52,24.10
2013,05,04,13,53,24.10
2013,05,04,13,54,24.10
2013,05,04,13,55,24.00
2013,05,04,13,56,23.90
2013,05,04,13,57,23.90
2013,05,04,13,58,23.80
2013,05,04,13,59,23.80
2013,05,04,14,00,23.80
2013,05,04,14,01,23.80
2013,05,04,14,02,23.80
2013,05,04,14,03,23.80
2013,05,04,14,04,23.80
2013,05,04,14,05,23.80
2013,05,04,14,06,23.80
2013,05,04,14,07,23.80
2013,05,04,14,08,23.80
2013,05,04,14,09,23.80
2013,05,04,14,10,23.80
2013,05,04,14,11,23.70
2013,05,04,14,12,23.70
2013,05,04,14,13,23.70
2013,05,04,14,14,23.70
2013,05,04,14,15,23.60
2013,05,04,14,16,23.60
2013,05,04,14,17,23.60
2013,05,04,14,18,23.80
2013,05,04,14,19,23.90
2013,05,04,14,20,24.00
2013,05,04,14,21,24.10
2013,05,04,14,22,24.20
2013,05,04,14,23,24.30
2013,05,04,14,24,24.40
2013,05,04,14,25,24.50
2013,05,04,14,26,24.60
2013,05,04,14,27,24.60
2013,05,04,14,28,24.50
2013,05,04,14,29,24.50
2013,05,04,14,30,24.50
2013,05,04,14,31,24.50
2013,05,04,14,32,24.40
2013,05,04,14,33,24.40
2013,05,04,14,34,24.40
2013,05,04,14,35,24.30
2013,05,04,14,36,24.40
2013,05,04,14,37,24.40
2013,05,04,14,38,24.30
2013,05,04,14,39,24.40
2013,05,04,14,40,24.50
2013,05,04,14,41,24.70
2013,05,04,14,42,24.90
2013,05,04,14,43,24.90
2013,05,04,14,44,24.90
2013,05,04,14,45,24.90
2013,05,04,14,46,24.80
2013,05,04,14,47,24.80
2013,05,04,14,48,24.90
2013,05,04,14,49,24.90
2013,05,04,14,50,25.10
2013,05,04,14,51,25.20
2013,05,04,14,52,25.40
2013,05,04,14,53,25.40
2013,05,04,14,54,25.40
2013,05,04,14,55,25.60
2013,05,04,14,56,25.60
2013,05,04,14,57,25.50
2013,05,04,14,58,25.40
2013,05,04,14,59,25.40
2013,05,04,15,00,25.50
2013,05,04,15,01,25.50
2013,05,04,15,02,25.50
2013,05,04,15,03,25.40
2013,05,04,15,04,25.50
2013,05,04,15,05,25.50
2013,05,04,15,06,25.50
2013,05,04,15,07,25.40
2013,05,04,15,08,25.40
2013,05,04,15,09,25.20
2013,05,04,15,10,25.20
2013,05,04,15,11,25.20
2013,05,04,15,12,25.20
2013,05,04,15,13,25.30
2013,05,04,15,14,25.20
2013,05,04,15,15,25.10
2013,05,04,15,16,25.10
2013,05,04,15,17,25.20
2013,05,04,15,18,25.10
2013,05,04,15,19,25.10
2013,05,04,15,20,25.10
2013,05,04,15,21,25.20
2013,05,04,15,22,25.40
2013,05,04,15,23,25.50
2013,05,04,15,24,25.50
2013,05,04,15,25,25.50
2013,05,04,15,26,25.50
2013,05,04,15,27,25.50
2013,05,04,15,28,25.50
2013,05,04,15,29,25.40
2013,05,04,15,30,25.40
2013,05,04,15,31,25.40
2013,05,04,15,32,25.40
2013,05,04,15,33,25.40
2013,05,04,15,34,25.50
2013,05,04,15,35,25.50
2013,05,04,15,36,25.60
2013,05,04,15,37,25.80
2013,05,04,15,38,25.80
2013,05,04,15,39,25.90
2013,05,04,15,40,26.00
2013,05,04,15,41,26.00
2013,05,04,15,42,26.00
2013,05,04,15,43,26.00
2013,05,04,15,44,26.00
2013,05,04,15,45,26.00
2013,05,04,15,46,25.90
2013,05,04,15,47,25.90
2013,05,04,15,48,25.90
2013,05,04,15,49,25.90
2013,05,04,15,50,25.90
2013,05,04,15,51,25.90
2013,05,04,15,52,25.90
2013,05,04,15,53,25.70
2013,05,04,15,54,25.60
2013,05,04,15,55,25.60
2013,05,04,15,56,25.70
2013,05,04,15,57,25.80
2013,05,04,15,58,25.80
2013,05,04,15,59,25.90
2013,05,04,16,00,25.90
2013,05,04,16,01,25.80
2013,05,04,16,02,25.70
2013,05,04,16,03,25.70
2013,05,04,16,04,25.70
2013,05,04,16,05,25.60
2013,05,04,16,06,25.50
2013,05,04,16,07,25.50
2013,05,04,16,08,25.40
2013,05,04,16,09,25.50
2013,05,04,16,10,25.50
2013,05,04,16,11,25.70
2013,05,04,16,12,25.80
2013,05,04,16,13,25.80
2013,05,04,16,14,25.80
2013,05,04,16,15,25.70
2013,05,04,16,16,25.70
2013,05,04,16,17,25.70
2013,05,04,16,18,25.70
2013,05,04,16,19,25.90
2013,05,04,16,20,25.90
2013,05,04,16,21,25.90
2013,05,04,16,22,25.90
2013,05,04,16,23,25.80
2013,05,04,16,24,25.70
2013,05,04,16,25,25.60
2013,05,04,16,26,25.60
2013,05,04,16,27,25.60
2013,05,04,16,28,25.50
2013,05,04,16,29,25.50
2013,05,04,16,30,25.50
2013,05,04,16,31,25.50
2013,05,04,16,32,25.60
2013,05,04,16,33,25.70
2013,05,04,16,34,25.70
2013,05,04,16,35,25.70
2013,05,04,16,36,25.70
2013,05,04,16,37,25.60
2013,05,04,16,38,25.50
2013,05,04,16,39,25.50
2013,05,04,16,40,25.50
2013,05,04,16,41,25.50
2013,05,04,16,42,25.50
2013,05,04,16,43,25.50
2013,05,04,16,44,25.50
2013,05,04,16,45,25.60
2013,05,04,16,46,25.70
2013,05,04,16,47,25.80
2013,05,04,16,48,25.70
2013,05,04,16,49,25.70
2013,05,04,16,50,25.70
2013,05,04,16,51,25.70
2013,05,04,16,52,25.70
2013,05,04,16,53,25.70
2013,05,04,16,54,25.80
2013,05,04,16,55,25.80
2013,05,04,16,56,25.80
2013,05,04,16,57,25.70
2013,05,04,16,58,25.80
2013,05,04,16,59,25.90
2013,05,04,17,00,25.90
2013,05,04,17,01,25.90
2013,05,04,17,02,25.80
2013,05,04,17,03,25.70
2013,05,04,17,04,25.60
2013,05,04,17,05,25.60
2013,05,04,17,06,25.60
2013,05,04,17,07,25.60
2013,05,04,17,08,25.50
2013,05,04,17,09,25.50
2013,05,04,17,10,25.50
2013,05,04,17,11,25.60
2013,05,04,17,12,25.50
2013,05,04,17,13,25.50
2013,05,04,17,14,25.50
2013,05,04,17,15,25.50
2013,05,04,17,16,25.40
2013,05,04,17,17,25.40
2013,05,04,17,18,25.40
2013,05,04,17,19,25.40
2013,05,04,17,20,25.30
2013,05,04,17,21,25.20
2013,05,04,17,22,25.20
2013,05,04,17,23,25.10
2013,05,04,17,24,25.10
2013,05,04,17,25,25.10
2013,05,04,17,26,25.20
2013,05,04,17,27,25.20
2013,05,04,17,28,25.20
2013,05,04,17,29,25.30
2013,05,04,17,30,25.30
2013,05,04,17,31,25.40
2013,05,04,17,32,25.40
2013,05,04,17,33,25.40
2013,05,04,17,34,25.30
2013,05,04,17,35,25.20